Overview Statistics Trail Chart Weather Telemetry Raw packets
 

This is the latest recevied weather packets stored in our database for station/object JH5EWP-13. If no packets are shown the sender has not sent any weather packets the latest 10 day(s).

<< 6 7 8 9 10 11 12 >>
Time Temp. Humidity Pressure Rain* Wind** Luminosity Snow
1788139517 31.11° C 45% 1001.3 hPa 0 mm - - -
1788137717 31.11° C 45% 1001.4 hPa 0 mm - - -
1788135919 30° C 45% 1001.3 hPa 0 mm - - -
1788134117 29.44° C 45% 1001.3 hPa 0 mm - - -
1788132318 31.11° C 45% 1001 hPa 0 mm - - -
1788130518 31.67° C 45% 1000.8 hPa 0 mm - - -
1788128719 30.56° C 45% 1000.8 hPa 0 mm - - -
1788126919 28.89° C 45% 1000.6 hPa 0 mm - - -
1788125117 27.22° C 49% 1000.2 hPa 0 mm - - -
1788123319 26.67° C 49% 1000.1 hPa 0 mm - - -
1788121518 26.67° C 49% 999.6 hPa 0 mm - - -
1788119718 26.67° C 49% 999.6 hPa 0 mm - - -
1788117919 27.22° C 49% 999.2 hPa 0 mm - - -
1788116118 27.22° C 50% 999 hPa 0 mm - - -
1788114318 27.78° C 45% 999.2 hPa 0 mm - - -
1788112517 27.78° C 45% 999.3 hPa 0 mm - - -
1788110716 27.78° C 44% 999.7 hPa 0 mm - - -
1788109081 27.22° C 48% 999.7 hPa 0 mm - - -
1788107281 27.78° C 44% 999.4 hPa 0 mm - - -
1788105481 28.33° C 45% 999.5 hPa 0 mm - - -
1788103683 28.33° C 45% 999.7 hPa 0 mm - - -
1788101880 28.33° C 45% 999.7 hPa 0 mm - - -
1788100080 28.33° C 45% 999.7 hPa 0 mm - - -
1788098280 28.89° C 45% 999.8 hPa 0 mm - - -
1788096480 28.33° C 44% 999.9 hPa 0 mm - - -

* Rain latest hour (hover to see other rain measurements)
** Current wind speed in m/s (hover to see current wind gust speed)